Temperature
24 24 24 24 26 26 29 31 32 31 31 31 31 31 30 29 27 26 25 24 22 22 22 21 21 20 20 20 19 19 19 19 19 19 19 19 19 19 18 18 18 18 18 18 18 18 18 18 18
24 24 26 26 26 27 29 31 32 32 32 31 31 30 29 28 27 26 24 23 22 22 22 21 21 20 20 20 19 19 19 19 19 19 19 19 19 18 18 18 18 18 18 18 18 18 18 18 18
25 25 27 27 27 29 30 32 32 32 32 32 31 30 29 28 26 25 24 23 22 21 21 22 21 21 20 20 19 19 19 19 19 19 18 18 18 18 18 18 18 18 18 18 18 18 18 18 18
25 27 27 28 29 31 32 33 33 32 32 31 31 29 27 27 26 25 24 23 22 21 21 21 21 21 20 20 19 19 19 19 19 18 18 18 18 18 18 18 18 18 18 18 18 18 18 18 18
27 27 27 28 31 33 34 33 33 32 32 32 31 29 26 26 25 24 24 23 22 21 21 21 21 21 20 20 19 19 19 19 19 18 18 18 18 18 18 18 18 18 18 18 18 18 18 18 18
28 29 28 29 31 33 34 33 33 33 32 32 30 28 25 25 24 24 24 23 22 21 21 21 21 20 20 20 19 19 19 19 19 18 18 18 18 18 18 18 18 18 18 18 18 18 18 18 18
29 29 28 29 31 32 34 34 33 32 32 31 31 28 25 25 24 24 24 23 22 21 21 21 21 20 20 19 19 19 19 19 18 18 18 18 18 18 18 18 18 18 18 18 18 18 18 18 18
30 30 30 31 32 32 34 34 33 32 32 31 31 29 25 24 24 24 23 23 22 21 20 21 20 20 20 19 19 19 19 19 18 18 18 18 18 18 18 18 18 18 18 18 18 18 18 18 18
31 31 30 32 33 33 34 34 33 32 31 30 29 28 26 24 24 23 23 23 22 21 20 20 19 19 19 19 19 19 19 18 18 18 18 18 18 18 18 18 18 18 18 18 18 18 18 18 18
31 31 31 33 34 34 34 33 33 32 30 28 27 26 25 24 24 23 23 22 22 21 20 19 19 19 18 18 19 19 18 18 18 18 18 18 18 17 18 18 18 18 18 18 18 18 18 18 18
33 32 33 34 34 34 34 33 33 32 30 28 27 26 25 24 24 23 23 22 22 21 20 20 19 19 19 18 19 18 18 18 18 18 18 18 18 18 18 18 18 18 18 18 18 18 18 17 18
33 33 34 34 34 34 34 34 33 33 31 30 28 26 25 24 24 23 23 22 21 21 20 20 19 19 19 19 18 18 18 18 18 18 18 18 18 18 18 18 18 18 18 18 18 18 17 17 18
33 33 34 34 34 34 33 33 33 32 31 30 28 27 25 24 24 23 22 22 21 21 20 20 19 19 19 19 19 18 18 18 18 18 18 18 18 18 18 18 18 18 18 18 18 18 17 17 18
33 34 34 34 34 33 33 32 32 32 31 30 28 27 26 25 24 23 22 22 21 20 20 19 19 19 19 19 18 18 18 18 18 18 18 18 18 18 18 18 18 18 18 18 18 18 18 18 18
33 33 33 34 34 34 33 32 31 31 30 30 29 27 26 25 24 23 22 21 21 20 19 19 19 19 19 19 19 18 18 18 18 18 18 18 18 18 18 18 18 18 18 18 18 18 18 18 18
33 32 32 33 34 34 33 31 31 31 31 30 29 27 26 25 24 23 22 21 20 20 19 19 18 18 18 18 18 18 18 18 18 18 18 18 18 18 18 18 18 18 18 18 18 18 18 18 18
32 31 32 33 34 34 33 32 32 31 31 30 29 28 26 24 24 23 21 20 20 19 19 18 18 18 18 18 18 18 18 18 18 18 18 18 18 18 18 18 18 18 18 18 18 18 18 18 18
31 32 33 33 34 34 33 33 33 32 32 31 29 28 26 24 23 22 21 20 20 19 19 18 18 18 18 18 18 18 18 18 18 18 18 18 18 18 18 18 18 18 18 18 18 18 18 18 18
32 32 32 33 34 33 33 33 33 32 32 31 29 28 26 24 23 22 21 20 19 19 18 18 18 18 18 18 18 18 18 18 18 18 18 18 17 18 18 18 18 18 18 18 17 18 18 18 18
32 31 32 33 34 33 32 32 33 32 32 31 30 28 26 25 23 22 21 20 19 19 18 18 18 18 18 18 18 18 18 18 18 18 17 17 17 18 18 18 18 18 18 17 17 17 17 18 18
32 31 32 32 33 33 32 31 32 31 31 30 30 28 27 25 23 21 20 20 19 19 18 18 18 18 18 18 18 18 17 17 18 17 17 17 17 17 18 18 18 18 18 17 17 17 18 18 18
31 32 32 32 31 31 32 30 31 30 30 30 30 29 27 25 23 22 20 20 19 19 18 18 18 18 18 18 18 18 18 18 18 18 18 17 17 17 17 17 17 17 17 17 17 17 17 18 18
32 33 32 32 31 31 31 31 30 30 29 29 30 29 27 25 24 22 21 20 19 19 18 18 18 18 18 18 18 18 18 18 18 17 17 17 17 17 17 17 17 17 17 17 17 17 17 17 18
32 32 32 31 31 29 30 30 30 30 30 30 30 28 27 25 24 22 21 20 20 19 19 18 18 18 18 18 18 18 18 18 18 17 17 17 18 18 17 17 17 17 17 17 17 17 17 17 17
32 30 29 29 28 28 30 30 30 31 32 31 30 28 27 25 24 23 22 20 20 19 19 18 18 18 18 18 18 18 18 18 18 18 17 17 17 17 17 17 17 17 17 17 17 17 17 17 17
31 30 28 28 27 27 28 29 31 32 32 31 30 28 27 25 24 23 22 21 20 19 19 18 18 18 18 18 18 18 18 18 17 18 18 18 18 18 17 17 17 17 17 17 17 17 17 17 17
31 31 31 30 29 28 29 30 30 31 31 31 30 28 27 26 24 23 22 21 20 19 19 19 18 18 18 18 18 18 18 18 17 18 18 18 18 18 18 17 17 17 17 17 17 17 16 17 17
32 32 31 30 28 28 29 29 28 29 30 30 29 28 27 26 25 24 22 21 20 20 19 19 18 18 18 18 18 18 18 18 18 18 18 18 18 18 17 17 17 17 17 17 17 17 17 16 16
31 30 30 30 30 29 28 28 29 28 29 30 29 28 27 26 25 24 23 22 21 20 19 19 18 18 18 18 18 18 18 18 18 18 17 17 17 17 17 17 17 17 17 17 17 17 16 16 16
32 31 30 29 29 29 29 27 29 29 30 30 29 28 27 26 25 24 23 22 21 20 19 19 18 18 18 18 18 18 18 17 18 17 17 17 17 17 17 17 17 17 17 17 17 17 16 16 16
Wind_Speed
11 14 11 6 4 2 6 13 14 14 14 12 11 13 18 15 11 10 13 20 24 21 19 19 18 18 17 17 17 16 16 16 15 14 14 13 13 13 13 13 13 14 14 15 15 15 16 16 15
12 14 9 3 2 3 8 12 13 12 10 9 12 14 16 15 13 13 16 21 23 21 19 19 19 18 18 18 17 17 16 15 15 14 13 13 12 12 13 13 13 13 14 15 15 15 15 15 14
13 15 6 3 1 5 9 11 11 10 9 9 11 13 12 10 11 12 17 21 21 19 19 20 20 19 18 18 17 17 16 15 15 13 13 12 12 12 12 13 13 14 14 15 15 15 15 14 13
9 6 3 4 0 5 9 9 9 8 8 8 9 10 10 8 9 15 18 20 21 20 20 21 20 19 18 18 17 17 16 15 14 13 13 12 12 12 12 13 13 13 14 15 15 15 14 13 11
9 4 5 4 2 5 8 8 7 8 7 8 11 13 10 9 15 18 17 20 20 19 19 20 20 19 18 18 17 16 15 15 14 13 12 12 12 12 12 13 13 13 14 14 14 14 13 12 10
6 4 5 3 3 5 7 6 6 7 7 6 10 12 8 10 14 15 16 17 19 19 19 19 19 19 18 17 16 16 15 14 14 13 12 12 12 12 12 13 13 13 13 14 14 13 12 11 8
9 6 6 5 1 4 5 6 7 7 5 5 7 10 9 10 13 14 14 15 19 19 18 17 18 17 17 17 16 15 15 14 13 13 12 12 13 13 13 12 13 13 13 13 13 12 12 10 7
10 6 8 5 1 4 5 6 6 6 5 5 6 8 10 13 14 14 14 14 17 18 17 16 17 17 16 15 15 15 15 14 13 13 13 13 13 13 13 13 12 12 12 12 12 12 11 9 6
11 8 7 5 2 4 5 4 4 4 6 8 9 10 17 18 17 15 14 13 14 15 15 15 16 15 16 16 16 14 14 13 13 12 13 13 12 12 12 13 13 12 12 12 11 11 10 9 6
8 7 7 5 5 5 5 5 3 3 7 6 8 14 19 18 17 16 15 14 14 15 14 12 16 15 15 14 15 13 12 12 11 11 12 9 8 10 12 14 13 12 11 11 10 10 10 9 7
10 10 8 6 5 6 5 4 4 3 5 6 10 14 16 16 15 14 14 14 14 14 12 12 13 12 11 10 11 9 9 10 9 10 10 9 10 11 12 10 10 10 11 10 10 10 9 8 5
11 11 9 7 6 5 6 6 4 4 6 8 13 15 16 15 13 13 12 12 12 12 11 11 10 9 8 10 8 8 7 7 7 9 10 8 4 5 8 7 9 9 9 8 9 7 6 5 5
11 13 12 10 8 7 7 8 6 1 6 8 13 15 14 14 12 11 10 10 11 11 11 11 9 8 7 6 6 7 6 7 7 9 7 8 5 4 5 4 5 7 8 7 5 4 5 4 3
11 12 12 12 11 9 7 7 8 1 6 7 10 12 12 12 13 11 11 10 11 11 10 9 9 9 7 5 3 4 6 7 8 8 9 7 6 5 4 4 3 3 5 5 4 4 4 2 2
13 14 14 13 12 10 6 6 6 2 5 7 9 10 11 11 11 11 11 10 11 11 11 10 10 9 8 7 5 5 6 8 6 7 9 7 7 7 5 4 3 3 5 5 3 4 4 4 3
13 13 15 14 12 9 8 7 4 6 7 7 8 10 10 9 10 10 11 10 10 11 11 11 12 11 9 7 5 4 5 6 5 7 9 7 8 8 5 4 3 4 6 3 2 3 3 3 3
14 14 15 10 8 8 8 6 6 8 7 8 8 9 9 9 9 10 11 11 11 12 12 10 10 12 10 8 5 3 3 4 5 7 7 7 8 8 4 2 3 4 3 3 3 3 2 2 3
11 11 10 7 6 6 8 7 6 6 7 8 9 9 10 10 9 10 11 12 11 12 12 11 10 11 9 7 5 3 4 4 5 5 6 8 8 8 5 4 4 4 3 3 2 3 2 2 1
15 14 12 7 5 6 9 9 6 5 5 7 8 9 10 10 10 11 11 12 12 12 12 11 11 10 8 7 6 5 5 4 4 5 8 8 7 7 4 3 4 2 3 4 4 3 4 2 2
14 14 14 10 8 7 10 10 7 5 6 6 8 10 11 12 11 12 11 12 13 13 12 11 10 11 10 7 5 5 5 4 5 4 6 8 8 8 7 4 4 3 3 3 2 1 1 3 4
14 14 14 12 10 9 12 13 8 4 5 5 8 10 10 12 13 13 12 11 12 12 13 12 11 10 10 9 6 5 3 3 4 5 5 6 8 7 4 6 4 4 4 4 4 4 3 2 2
14 14 14 13 12 11 11 10 6 6 5 6 8 10 11 12 13 13 12 12 12 12 12 11 11 10 10 9 9 9 7 6 5 5 5 6 7 7 6 6 4 3 3 5 5 5 3 3 2
14 13 11 12 12 14 14 11 3 6 6 7 8 10 11 12 13 13 13 13 12 12 12 11 10 10 10 9 10 9 7 6 5 5 7 6 5 6 7 6 5 4 3 4 4 3 2 2 3
13 12 10 11 12 14 14 11 4 4 6 7 9 11 11 11 12 12 12 12 10 11 11 11 11 10 10 10 9 9 8 7 6 6 7 6 5 5 6 6 5 5 4 3 3 3 3 2 2
14 11 9 10 9 10 9 9 3 6 6 8 10 12 12 12 12 12 12 12 10 10 11 11 11 10 10 10 9 9 8 7 7 7 7 6 6 6 6 7 5 5 4 4 4 4 3 3 3
16 16 12 9 6 6 7 7 6 8 9 9 10 12 12 13 12 12 11 11 10 10 10 11 11 10 10 9 8 8 8 6 6 7 6 6 5 6 7 7 6 6 5 5 4 4 5 4 3
16 16 18 15 13 9 6 4 7 8 10 10 11 12 12 12 12 12 12 11 10 10 10 11 10 9 9 9 8 7 7 6 6 6 6 5 4 5 7 7 7 6 6 4 4 4 4 4 4
17 14 10 12 10 11 6 5 5 7 8 10 12 12 12 12 12 12 12 12 10 9 9 10 10 8 8 7 7 8 7 7 6 5 6 5 5 4 6 7 7 7 6 6 5 4 4 5 4
16 16 13 10 11 10 6 1 4 6 8 11 12 12 12 12 12 11 11 11 10 10 10 9 9 8 7 7 6 5 6 7 6 5 5 5 4 4 5 5 6 6 6 6 6 5 5 5 4
16 17 16 11 10 11 7 2 4 7 8 10 12 12 12 11 12 12 11 11 10 10 10 9 9 8 8 7 6 6 6 6 6 6 5 5 4 4 4 4 5 5 5 5 5 5 4 4 4
Wind_Direction
251 251 241 259 268 272 63 70 66 66 64 59 53 59 64 57 61 90 118 120 121 124 129 129 126 126 126 127 127 125 123 120 118 115 112 108 105 103 102 100 100 99 101 102 103 103 102 102 102
272 267 255 255 267 80 73 73 69 68 70 71 62 63 71 69 78 104 117 121 124 128 134 131 129 127 127 127 128 127 124 123 122 119 116 112 110 108 106 104 103 103 105 105 106 105 105 105 105
269 269 271 239 235 81 79 76 77 81 77 68 72 65 65 78 91 112 123 128 126 129 129 130 132 131 130 129 129 129 127 126 125 122 119 116 114 112 109 106 106 107 108 108 108 107 107 108 109
268 269 271 261 123 83 82 81 83 77 73 70 75 78 68 65 105 121 131 132 128 129 129 134 134 133 132 131 131 131 131 130 127 125 123 120 118 115 111 108 109 109 109 110 111 110 110 111 112
259 268 265 275 76 82 81 75 77 81 70 76 83 90 89 82 108 125 137 131 133 132 131 136 136 136 135 134 134 133 132 131 129 128 126 123 120 116 114 113 112 112 112 113 114 114 114 114 117
264 260 281 301 86 86 83 81 72 73 71 68 95 102 101 111 121 135 138 135 133 130 132 136 138 138 138 138 136 135 134 133 133 131 128 125 122 120 118 117 116 116 116 117 117 117 118 119 121
263 278 278 285 350 76 75 76 65 67 67 70 91 106 118 129 133 141 138 136 132 132 136 142 144 142 141 141 140 139 138 137 136 134 132 130 128 126 123 121 122 121 122 122 123 123 124 126 132
271 281 289 270 151 85 68 71 70 70 70 72 82 112 136 144 147 143 139 138 132 134 139 148 149 146 146 143 143 143 142 142 141 140 140 138 135 133 133 128 126 126 127 129 129 129 131 136 146
271 276 288 304 15 65 47 42 71 85 71 47 58 92 133 146 149 145 144 140 135 137 143 155 150 151 151 147 144 145 144 145 146 148 149 150 150 145 145 129 132 133 134 136 139 141 144 150 166
245 266 280 308 359 18 27 358 349 75 85 73 76 105 129 145 152 153 154 152 149 147 152 156 152 157 156 149 146 152 155 154 163 155 161 171 151 141 131 135 138 141 143 145 152 158 164 175 179
249 257 279 307 348 343 332 323 332 42 94 130 142 137 142 148 154 157 159 159 157 155 151 151 154 157 153 141 152 160 156 159 169 161 168 164 145 139 136 143 148 154 160 165 163 178 192 194 180
256 273 284 298 315 308 305 311 331 12 76 116 137 144 148 155 160 163 161 159 154 153 152 150 153 150 145 147 153 153 152 161 159 163 174 159 155 143 145 151 162 170 177 172 178 191 180 159 160
252 267 277 285 288 287 299 306 303 7 90 105 129 142 152 160 164 163 157 153 150 152 153 149 151 138 131 134 156 160 150 159 154 158 182 162 154 140 137 134 160 183 166 172 186 167 136 142 158
274 275 275 275 277 278 280 294 299 288 123 131 137 146 157 163 164 163 160 160 155 155 153 146 144 138 135 144 168 144 150 155 156 163 165 171 145 126 135 141 172 173 148 149 150 133 129 150 135
271 278 276 269 262 258 267 271 261 215 179 162 150 152 158 161 162 165 166 166 161 156 155 151 151 151 149 160 179 160 157 162 163 156 149 160 144 139 146 150 181 146 127 125 136 143 151 163 159
265 260 261 256 246 247 252 260 207 191 200 169 156 156 157 156 161 159 160 160 156 155 157 166 166 156 157 170 191 166 169 154 151 148 145 155 148 149 155 159 162 139 141 159 157 162 160 167 149
253 249 254 249 227 247 257 265 193 198 184 165 162 158 155 155 166 156 156 156 156 156 157 168 157 156 167 174 179 181 156 149 148 143 150 161 157 153 160 142 128 163 156 171 186 155 166 163 157
257 261 260 256 230 248 269 272 228 210 191 169 165 161 157 162 167 155 150 151 152 154 158 166 165 160 166 171 171 178 162 162 154 153 157 165 165 163 168 150 154 186 171 161 118 126 111 116 196
278 294 296 285 276 276 278 276 249 242 221 173 161 162 161 162 156 149 151 154 156 157 160 165 169 166 167 170 169 171 171 178 170 165 159 163 173 170 169 154 156 193 157 156 156 155 164 188 191
265 274 280 282 273 273 279 278 261 240 248 180 170 166 167 158 152 151 154 157 161 163 164 166 172 171 173 173 170 171 172 180 174 164 153 166 177 180 173 167 173 177 145 151 165 157 185 207 191
257 261 270 279 283 271 271 268 248 200 232 200 176 163 161 155 157 157 157 157 162 168 171 175 175 173 178 171 167 165 155 173 168 160 163 180 183 184 180 167 186 176 175 170 188 185 202 228 206
254 255 264 274 278 276 273 273 226 191 195 202 177 156 151 152 155 156 161 166 171 173 173 173 174 176 174 172 171 170 176 181 179 169 169 186 188 182 184 175 178 177 185 167 193 189 197 202 228
254 267 266 271 272 273 270 271 232 160 180 198 169 148 146 152 152 157 163 167 171 172 170 170 170 173 175 178 177 180 185 185 184 171 169 183 188 193 188 176 176 190 205 173 176 148 195 215 229
251 261 263 262 264 260 260 266 236 184 178 175 152 138 141 144 148 153 157 159 166 168 167 169 170 173 176 182 185 187 188 183 182 180 176 185 184 194 195 181 181 190 201 171 160 159 194 232 265
231 239 245 239 239 259 264 247 203 149 141 140 135 134 139 144 150 153 156 159 163 167 168 169 168 171 176 182 188 189 189 185 186 186 190 191 186 189 192 184 179 191 189 173 174 177 213 210 226
221 228 238 253 256 264 258 236 154 137 124 130 135 136 143 148 150 152 154 156 163 166 166 166 167 169 176 181 184 186 184 191 190 194 195 197 196 188 173 173 181 189 190 193 179 188 201 199 205
232 228 244 261 270 267 228 192 134 131 139 142 142 142 147 148 150 153 154 155 163 165 166 167 163 168 177 180 180 185 190 193 188 188 194 196 198 185 170 176 184 188 188 191 175 204 207 172 193
242 236 238 251 270 275 247 211 181 159 161 150 147 148 147 148 150 151 151 154 159 161 158 156 157 166 172 174 181 187 188 185 186 193 199 193 194 189 171 183 187 187 185 188 192 207 196 177 194
219 236 245 253 255 266 270 300 129 170 167 155 149 145 146 150 150 148 147 150 154 153 153 154 156 161 168 176 180 176 177 181 187 197 198 184 180 172 172 185 191 189 190 191 194 210 196 186 193
224 226 230 242 253 268 267 225 155 164 161 154 141 140 142 150 148 143 140 144 149 151 153 157 162 168 171 171 169 169 173 175 182 190 189 179 179 179 179 184 191 198 190 186 191 200 192 173 175
Height
1483 1482 1483 1486 1484 1484 1478 1467 1463 1465 1466 1468 1469 1469 1474 1479 1485 1496 1497 1498 1500 1502 1506 1509 1512 1515 1517 1520 1522 1524 1527 1528 1530 1532 1534 1535 1536 1538 1539 1540 1541 1542 1544 1545 1546 1547 1548 1549 1551
1483 1484 1487 1485 1486 1491 1479 1466 1466 1467 1469 1469 1470 1473 1477 1483 1488 1493 1497 1500 1502 1503 1507 1510 1513 1516 1518 1521 1524 1526 1528 1530 1532 1534 1535 1537 1538 1540 1541 1542 1543 1544 1545 1546 1548 1549 1550 1551 1553
1484 1486 1487 1482 1483 1483 1476 1466 1466 1467 1469 1470 1472 1476 1481 1487 1491 1495 1498 1501 1503 1505 1508 1511 1514 1517 1519 1522 1525 1527 1530 1532 1534 1535 1537 1539 1540 1541 1543 1544 1545 1546 1547 1548 1550 1551 1552 1554 1555
1487 1486 1484 1480 1480 1468 1464 1463 1464 1467 1469 1471 1473 1480 1487 1490 1493 1496 1499 1503 1505 1507 1509 1512 1515 1518 1521 1523 1526 1528 1531 1533 1535 1537 1538 1540 1542 1543 1544 1545 1547 1548 1549 1550 1552 1553 1554 1556 1557
1489 1487 1485 1483 1472 1462 1459 1462 1464 1467 1469 1471 1475 1481 1489 1493 1494 1497 1501 1504 1506 1508 1510 1513 1516 1519 1522 1524 1527 1529 1532 1534 1536 1538 1540 1542 1543 1545 1546 1547 1548 1550 1551 1552 1554 1555 1556 1558 1559
1488 1483 1489 1486 1472 1461 1460 1463 1464 1467 1470 1472 1475 1482 1491 1494 1496 1499 1502 1504 1507 1509 1511 1514 1517 1519 1522 1525 1528 1530 1533 1535 1537 1539 1541 1543 1544 1546 1547 1549 1550 1551 1553 1554 1556 1557 1558 1559 1561
1486 1484 1487 1482 1471 1465 1461 1462 1464 1469 1470 1472 1475 1482 1491 1494 1496 1499 1503 1505 1507 1509 1511 1514 1517 1520 1523 1526 1529 1531 1534 1536 1538 1540 1542 1544 1546 1547 1549 1550 1552 1553 1554 1556 1557 1559 1560 1561 1563
1482 1481 1482 1475 1470 1467 1462 1462 1465 1468 1471 1473 1475 1480 1490 1493 1497 1500 1503 1506 1508 1510 1512 1515 1518 1520 1523 1526 1529 1532 1534 1537 1539 1541 1543 1545 1547 1549 1550 1552 1553 1555 1556 1558 1559 1560 1562 1563 1564
1481 1481 1482 1472 1466 1463 1461 1462 1465 1468 1472 1475 1477 1480 1485 1491 1496 1499 1503 1506 1508 1511 1512 1516 1518 1521 1524 1527 1530 1532 1535 1538 1540 1542 1545 1546 1548 1550 1551 1553 1555 1556 1558 1559 1561 1562 1563 1565 1566
1478 1481 1475 1464 1460 1461 1462 1464 1464 1468 1473 1479 1483 1485 1487 1490 1494 1498 1501 1504 1507 1510 1513 1516 1518 1521 1525 1528 1530 1533 1536 1538 1541 1543 1545 1547 1550 1551 1553 1554 1556 1557 1559 1561 1562 1563 1565 1566 1568
1473 1473 1467 1463 1462 1463 1463 1464 1464 1466 1473 1477 1482 1486 1488 1490 1494 1498 1501 1504 1507 1510 1514 1517 1519 1522 1526 1528 1530 1533 1536 1539 1541 1544 1546 1548 1550 1552 1554 1555 1557 1559 1560 1562 1564 1565 1566 1567 1569
1471 1467 1465 1464 1463 1464 1464 1464 1464 1466 1471 1475 1479 1483 1487 1490 1494 1497 1501 1504 1507 1510 1513 1516 1518 1522 1525 1528 1531 1534 1537 1539 1542 1544 1547 1549 1551 1553 1555 1556 1557 1559 1561 1563 1565 1566 1567 1568 1570
1469 1467 1465 1464 1463 1464 1465 1465 1465 1467 1471 1474 1478 1482 1486 1490 1494 1498 1501 1504 1506 1509 1512 1514 1517 1521 1524 1528 1532 1535 1537 1540 1542 1544 1547 1550 1552 1554 1555 1557 1558 1560 1562 1564 1565 1567 1568 1569 1571
1467 1465 1463 1463 1462 1463 1463 1465 1467 1469 1471 1474 1478 1482 1486 1490 1493 1497 1500 1503 1505 1508 1511 1514 1517 1520 1523 1527 1531 1534 1537 1540 1542 1544 1547 1550 1552 1553 1555 1557 1558 1561 1562 1564 1565 1567 1568 1570 1571
1468 1467 1465 1461 1460 1460 1462 1466 1466 1469 1471 1473 1477 1481 1486 1489 1492 1495 1498 1501 1504 1506 1509 1512 1515 1519 1522 1527 1531 1534 1537 1540 1542 1544 1547 1549 1551 1553 1555 1557 1559 1561 1562 1564 1565 1567 1568 1570 1571
1467 1468 1470 1459 1456 1456 1463 1471 1464 1466 1469 1471 1475 1480 1485 1488 1491 1494 1497 1499 1502 1504 1507 1511 1515 1518 1522 1526 1530 1533 1537 1540 1542 1544 1546 1548 1550 1553 1555 1557 1559 1561 1562 1563 1565 1567 1568 1570 1571
1468 1472 1467 1457 1452 1453 1457 1464 1461 1462 1465 1469 1474 1479 1483 1488 1491 1493 1495 1497 1499 1502 1505 1508 1513 1517 1521 1525 1529 1532 1536 1539 1541 1544 1546 1548 1550 1552 1554 1556 1558 1560 1562 1563 1565 1566 1568 1569 1571
1469 1463 1460 1458 1450 1451 1456 1458 1456 1459 1461 1466 1471 1476 1482 1486 1489 1492 1494 1496 1498 1501 1504 1507 1512 1516 1520 1524 1528 1531 1535 1537 1540 1542 1545 1547 1549 1551 1553 1555 1557 1560 1561 1563 1564 1566 1567 1568 1570
1460 1461 1460 1455 1448 1453 1457 1456 1455 1457 1458 1463 1469 1474 1479 1484 1488 1490 1493 1495 1497 1500 1503 1507 1511 1515 1518 1522 1526 1529 1533 1536 1539 1541 1543 1546 1548 1550 1552 1555 1556 1558 1560 1562 1563 1565 1566 1568 1569
1461 1465 1462 1454 1448 1452 1456 1457 1451 1455 1456 1461 1466 1471 1476 1482 1486 1489 1492 1494 1497 1499 1503 1506 1509 1513 1517 1521 1524 1528 1531 1535 1538 1540 1542 1544 1547 1549 1552 1553 1555 1557 1559 1561 1562 1563 1565 1567 1568
1462 1464 1462 1459 1452 1450 1456 1460 1454 1453 1457 1461 1464 1469 1474 1479 1484 1488 1491 1494 1496 1499 1501 1504 1508 1512 1516 1520 1523 1527 1530 1533 1536 1539 1540 1543 1545 1548 1550 1552 1554 1556 1558 1559 1561 1562 1564 1566 1567
1465 1456 1456 1457 1461 1463 1459 1471 1458 1455 1458 1460 1462 1467 1472 1477 1482 1486 1490 1493 1496 1498 1501 1504 1507 1510 1514 1518 1521 1524 1527 1530 1534 1537 1539 1541 1544 1546 1548 1550 1552 1554 1556 1557 1559 1561 1563 1564 1566
1457 1450 1452 1456 1461 1465 1459 1465 1461 1454 1461 1460 1460 1465 1471 1476 1480 1485 1488 1491 1495 1497 1500 1502 1505 1509 1512 1516 1519 1522 1526 1529 1532 1535 1537 1539 1542 1544 1546 1548 1550 1552 1554 1556 1557 1559 1561 1563 1564
1452 1454 1456 1458 1462 1476 1463 1466 1466 1455 1455 1456 1458 1464 1470 1475 1479 1484 1487 1491 1494 1497 1499 1501 1504 1507 1511 1514 1518 1521 1524 1527 1530 1533 1535 1537 1540 1542 1544 1546 1548 1550 1552 1554 1556 1557 1559 1561 1563
1453 1466 1479 1481 1483 1480 1459 1462 1459 1447 1446 1450 1456 1463 1469 1475 1479 1483 1487 1490 1492 1495 1497 1500 1502 1505 1509 1512 1516 1519 1522 1525 1528 1530 1533 1535 1537 1539 1541 1544 1546 1548 1550 1552 1553 1555 1557 1559 1560
1453 1459 1478 1486 1488 1480 1467 1463 1451 1441 1445 1451 1456 1462 1468 1473 1478 1482 1486 1489 1491 1494 1496 1499 1501 1504 1508 1511 1514 1517 1520 1523 1526 1529 1531 1533 1536 1538 1540 1542 1543 1546 1548 1550 1551 1553 1555 1556 1558
1450 1453 1449 1460 1466 1474 1466 1455 1448 1443 1446 1451 1456 1462 1467 1473 1478 1481 1485 1488 1490 1493 1495 1497 1500 1503 1507 1510 1513 1515 1518 1521 1523 1526 1529 1531 1534 1536 1538 1540 1541 1543 1545 1547 1549 1551 1552 1554 1556
1442 1444 1452 1461 1476 1480 1467 1464 1460 1453 1451 1451 1456 1461 1466 1472 1477 1481 1484 1487 1490 1492 1494 1497 1499 1503 1506 1508 1511 1514 1516 1519 1521 1524 1526 1529 1531 1534 1536 1537 1539 1541 1543 1545 1546 1548 1550 1552 1553
1446 1448 1449 1451 1455 1469 1478 1471 1449 1453 1449 1451 1455 1460 1466 1471 1476 1480 1484 1487 1490 1492 1495 1497 1500 1502 1504 1507 1509 1512 1514 1517 1519 1522 1524 1526 1529 1531 1533 1535 1537 1539 1540 1542 1544 1546 1547 1549 1551
1435 1441 1447 1462 1462 1456 1464 1471 1446 1446 1448 1450 1454 1460 1465 1470 1475 1479 1484 1487 1490 1493 1495 1498 1500 1502 1504 1506 1508 1511 1513 1515 1517 1519 1521 1524 1526 1528 1530 1533 1534 1536 1538 1539 1541 1543 1545 1547 1548